Weather History for Strasbourg, France

Change the Weather History Date:

Friday, September 20, 2013

  Actual Average Record
Temperature  
Mean Temperature 60 °F -  
Max Temperature 68 °F 61 °F 87 °F (2003)
Min Temperature 53 °F 45 °F 37 °F (2005)
Degree Days  
Heating Degree Days 4    
Growing Degree Days 10 (Base 50)    
Moisture  
Dew Point 50 °F    
Average Humidity 73    
Maximum Humidity 88    
Minimum Humidity 46    
Precipitation  
Precipitation 0.00 in 0.06 in - ()
Sea Level Pressure  
Sea Level Pressure 30.06 in    
Wind  
Wind Speed 6 mph ()    
Max Wind Speed 14 mph    
Max Gust Speed -    
Visibility 6.3 miles    
Events Rain    
Averages and records for this station are not official NWS values.
T = Trace of Precipitation, MM = Missing Value Source: Averaged Metar Reports

Daily Weather History Graph

Daily Weather History Graph

Search for Another Location

Airport:

Trip Planner

Search our weather history database for the weather conditions in past years. The results will help you decide how hot, cold, wet, or windy it might be!

Date:

Astronomy

Sep. 20, 2013 Rise Set
Actual Time 7:13 AM CEST 7:31 PM CEST
Civil Twilight 6:41 AM CEST 8:02 PM CEST
Nautical Twilight 6:04 AM CEST 8:39 PM CEST
Astronomical Twilight 5:26 AM CEST 9:18 PM CEST
Moon 7:45 PM CEST (9/20) 8:18 AM CEST (9/20)
Length of Visible Light 13h 21m
Length of Day
12h 18m
Full, 99% of the Moon is Illuminated
Sep 20
Full
Sep 27
Last Quarter
Oct 5
New
Oct 12
First Quarter
Oct 19
Full

Hourly Weather History & Observations

Time (CEST) Temp. Dew Point Humidity Pressure Visibility Wind Dir Wind Speed Gust Speed Precip Events Conditions
12:00 AM 53.6 °F 46.4 °F 77% 30.01 in 6.2 mi SW 5.8 mph - N/A   Mostly Cloudy
12:30 AM 53.6 °F 48.2 °F 82% 30.01 in 6.2 mi Variable 3.5 mph - N/A   Overcast
1:00 AM 53.6 °F 48.2 °F 82% 30.01 in 6.2 mi South 4.6 mph - N/A   Overcast
1:30 AM 53.6 °F 48.2 °F 82% 30.01 in 6.2 mi Variable 3.5 mph - N/A   Overcast
2:00 AM 55 °F 48 °F 70% 30.01 in 37 mi South 5.8 mph - -   Clear
2:00 AM 55.4 °F 48.2 °F 77% 30.01 in 6.2 mi South 5.8 mph - N/A   Overcast
2:30 AM 55.4 °F 48.2 °F 77% 29.98 in 6.2 mi SSW 6.9 mph - N/A   Overcast
3:00 AM 55.4 °F 48.2 °F 77% 29.98 in 6.2 mi SSW 8.1 mph - N/A   Overcast
3:30 AM 55.4 °F 46.4 °F 72% 29.98 in 6.2 mi SW 6.9 mph - N/A   Overcast
4:00 AM 55.4 °F 46.4 °F 72% 29.98 in 6.2 mi SSW 4.6 mph - N/A   Overcast
4:30 AM 53.6 °F 50.0 °F 88% 29.98 in 6.2 mi South 9.2 mph - N/A Rain Light Rain
5:00 AM 53.6 °F 50.0 °F 88% 29.98 in 6.2 mi South 10.4 mph - N/A   Overcast
5:30 AM 53.6 °F 50.0 °F 88% 29.98 in 6.2 mi South 10.4 mph - N/A   Overcast
6:00 AM 53.6 °F 50.0 °F 88% 29.98 in 6.2 mi South 10.4 mph - N/A   Overcast
6:30 AM 53.6 °F 50.0 °F 88% 29.98 in 6.2 mi South 8.1 mph - N/A   Overcast
7:00 AM 53.6 °F 50.0 °F 88% 30.01 in 6.2 mi South 9.2 mph - N/A   Overcast
7:30 AM 53.6 °F 50.0 °F 88% 30.01 in 6.2 mi South 8.1 mph - N/A   Overcast
8:00 AM 53.6 °F 50.0 °F 88% 30.01 in 6.2 mi South 8.1 mph - N/A   Overcast
8:30 AM 55.4 °F 50.0 °F 82% 30.01 in 6.2 mi South 6.9 mph - N/A   Overcast
9:00 AM 55.4 °F 50.0 °F 82% 30.04 in 6.2 mi South 5.8 mph - N/A   Overcast
9:30 AM 55.4 °F 50.0 °F 82% 30.04 in 6.2 mi SSW 6.9 mph - N/A   Overcast
10:00 AM 55.4 °F 50.0 °F 82% 30.04 in 6.2 mi South 4.6 mph - N/A   Overcast
10:30 AM 59.0 °F 51.8 °F 77% 30.06 in 6.2 mi SSW 8.1 mph - N/A   Overcast
11:00 AM 59.0 °F 51.8 °F 77% 30.06 in 6.2 mi South 9.2 mph - N/A   Overcast
11:30 AM 59.0 °F 51.8 °F 77% 30.06 in 6.2 mi South 9.2 mph - N/A   Overcast
12:00 PM 60.8 °F 51.8 °F 72% 30.06 in 6.2 mi SSW 10.4 mph - N/A   Mostly Cloudy
12:30 PM 64.4 °F 51.8 °F 64% 30.06 in 6.2 mi SSW 10.4 mph - N/A   Mostly Cloudy
1:00 PM 64.4 °F 50.0 °F 59% 30.06 in 6.2 mi SW 8.1 mph - N/A   Mostly Cloudy
1:30 PM 64.4 °F 48.2 °F 56% 30.06 in 6.2 mi West 9.2 mph - N/A   Mostly Cloudy
2:00 PM 65 °F 49 °F 46% 30.07 in 34 mi West 8.1 mph - -   Clear
2:00 PM 66.2 °F 50.0 °F 56% 30.06 in 6.2 mi West 8.1 mph - N/A   Overcast
2:30 PM 64.4 °F 48.2 °F 56% 30.06 in 6.2 mi West 13.8 mph - N/A   Overcast
3:00 PM 66.2 °F 50.0 °F 56% 30.06 in 6.2 mi WSW 10.4 mph - N/A   Mostly Cloudy
3:30 PM 68.0 °F 50.0 °F 52% 30.06 in 6.2 mi WSW 10.4 mph - N/A   Mostly Cloudy
4:00 PM 66.2 °F 48.2 °F 52% 30.09 in 6.2 mi WSW 10.4 mph - N/A   Mostly Cloudy
4:30 PM 66.2 °F 50.0 °F 56% 30.09 in 6.2 mi WSW 11.5 mph - N/A   Mostly Cloudy
5:00 PM 68.0 °F 50.0 °F 52% 30.09 in 6.2 mi WSW 11.5 mph - N/A   Unknown
5:30 PM 66.2 °F 50.0 °F 56% 30.09 in 6.2 mi SW 11.5 mph - N/A   Unknown
6:00 PM 64.4 °F 50.0 °F 59% 30.09 in 6.2 mi SW 8.1 mph - N/A   Unknown
6:30 PM 64.4 °F 48.2 °F 56% 30.12 in 6.2 mi WSW 8.1 mph - N/A   Unknown
7:00 PM 62.6 °F 51.8 °F 68% 30.12 in 6.2 mi SSW 5.8 mph - N/A   Unknown
7:30 PM 60.8 °F 53.6 °F 77% 30.12 in 6.2 mi SSW 4.6 mph - N/A   Unknown
8:00 PM 61 °F 52 °F 64% 30.15 in 11 mi SW 3.5 mph - -   Clear
8:00 PM 60.8 °F 51.8 °F 72% 30.15 in 6.2 mi SW 3.5 mph - N/A   Unknown
8:30 PM 59.0 °F 51.8 °F 77% 30.15 in 6.2 mi Variable 3.5 mph - N/A   Unknown
9:00 PM 59.0 °F 51.8 °F 77% 30.18 in 6.2 mi Variable 3.5 mph - N/A   Unknown
9:30 PM 59.0 °F 51.8 °F 77% 30.18 in 6.2 mi SW 3.5 mph - N/A   Unknown
10:00 PM 59.0 °F 51.8 °F 77% 30.18 in 6.2 mi WSW 4.6 mph - N/A   Unknown
10:30 PM 59.0 °F 51.8 °F 77% 30.18 in 6.2 mi WSW 6.9 mph - N/A   Unknown
11:00 PM 55.4 °F 50.0 °F 82% 30.21 in 6.2 mi South 4.6 mph - N/A   Unknown
11:30 PM 55.4 °F 51.8 °F 88% 30.21 in 6.2 mi South 4.6 mph - N/A   Unknown